• In Deutschland
  • Länderverzeichnis
  • Für 7 Tage
  • Wassertemperatur
  • Satellitenkarten
  • Wetterkarte
  • Widgets
  • user-avatar
    Anmelden

    Stündliche Wetter Perth

    Heute, 23 Juni, Freitag

    Zeit Temperatur Niederschläge Wind Luftdruck Luftfeuchtigkeit
    00:00 +12°C° 0,5 mm 7 m/S 758 mmHg 92%
    01:00 +13°C° 0,5 mm 6 m/S 758 mmHg 92%
    02:00 +12°C° 0 mm 7 m/S 759 mmHg 92%
    03:00 +12°C° 0,3 mm 7 m/S 759 mmHg 92%
    04:00 +12°C° 0,3 mm 7 m/S 759 mmHg 92%
    05:00 +12°C° 0,3 mm 7 m/S 759 mmHg 91%
    06:00 +12°C° 0,2 mm 7 m/S 760 mmHg 91%
    07:00 +12°C° 0,2 mm 7 m/S 761 mmHg 90%
    08:00 +14°C° 0 mm 6 m/S 761 mmHg 90%
    09:00 +14°C° 0,1 mm 6 m/S 762 mmHg 87%
    10:00 +15°C° 0,1 mm 6 m/S 762 mmHg 84%
    11:00 +15°C° 0,1 mm 6 m/S 763 mmHg 82%
    12:00 +16°C° 0,1 mm 6 m/S 762 mmHg 76%
    13:00 +17°C° 0,1 mm 6 m/S 762 mmHg 71%
    14:00 +19°C° 0 mm 6 m/S 762 mmHg 67%
    15:00 +17°C° 0 mm 6 m/S 763 mmHg 69%
    16:00 +17°C° 0 mm 6 m/S 763 mmHg 71%
    17:00 +16°C° 0 mm 6 m/S 763 mmHg 73%
    18:00 +15°C° 0 mm 6 m/S 764 mmHg 76%
    19:00 +15°C° 0 mm 6 m/S 764 mmHg 78%
    20:00 +14°C° 0 mm 6 m/S 765 mmHg 80%
    21:00 +14°C° 0 mm 6 m/S 765 mmHg 81%
    22:00 +13°C° 0 mm 6 m/S 765 mmHg 81%
    23:00 +13°C° 0 mm 6 m/S 766 mmHg 82%

    Morgen, 24 Juni, Samstag

    Zeit Temperatur Niederschläge Wind Luftdruck Luftfeuchtigkeit
    00:00 +13°C° 0 mm 6 m/S 766 mmHg 82%
    01:00 +13°C° 0 mm 6 m/S 766 mmHg 81%
    02:00 +12°C° 0 mm 5 m/S 766 mmHg 81%
    03:00 +12°C° 0 mm 5 m/S 766 mmHg 82%
    04:00 +12°C° 0 mm 5 m/S 766 mmHg 83%
    05:00 +10°C° 0 mm 5 m/S 766 mmHg 84%
    06:00 +10°C° 0 mm 5 m/S 766 mmHg 83%
    07:00 +10°C° 0 mm 5 m/S 767 mmHg 82%
    08:00 +10°C° 0 mm 5 m/S 767 mmHg 82%
    09:00 +12°C° 0 mm 5 m/S 767 mmHg 75%
    10:00 +14°C° 0 mm 5 m/S 767 mmHg 69%
    11:00 +15°C° 0 mm 5 m/S 767 mmHg 62%
    12:00 +16°C° 0 mm 5 m/S 767 mmHg 59%
    13:00 +18°C° 0 mm 4 m/S 766 mmHg 56%
    14:00 +18°C° 0 mm 4 m/S 765 mmHg 54%
    15:00 +17°C° 0 mm 4 m/S 766 mmHg 57%
    16:00 +15°C° 0 mm 4 m/S 766 mmHg 61%
    17:00 +14°C° 0 mm 4 m/S 766 mmHg 64%
    18:00 +13°C° 0 mm 4 m/S 766 mmHg 69%
    19:00 +12°C° 0 mm 4 m/S 767 mmHg 73%
    20:00 +11°C° 0 mm 4 m/S 767 mmHg 77%
    21:00 +11°C° 0 mm 4 m/S 767 mmHg 80%
    22:00 +11°C° 0 mm 4 m/S 768 mmHg 82%
    23:00 +10°C° 0 mm 4 m/S 768 mmHg 84%

    übermorgen, 25 Juni, Sonntag

    Zeit Temperatur Niederschläge Wind Luftdruck Luftfeuchtigkeit
    00:00 +10°C° 0 mm 4 m/S 768 mmHg 86%
    01:00 +10°C° 0 mm 4 m/S 768 mmHg 88%
    02:00 +8°C° 0 mm 4 m/S 768 mmHg 89%
    03:00 +8°C° 0 mm 4 m/S 768 mmHg 89%
    04:00 +8°C° 0 mm 4 m/S 768 mmHg 90%
    05:00 +8°C° 0 mm 4 m/S 768 mmHg 90%
    06:00 +8°C° 0 mm 4 m/S 768 mmHg 89%
    07:00 +9°C° 0 mm 3 m/S 769 mmHg 88%
    08:00 +8°C° 0 mm 3 m/S 769 mmHg 87%
    09:00 +10°C° 0 mm 3 m/S 769 mmHg 77%
    10:00 +12°C° 0 mm 3 m/S 769 mmHg 67%
    11:00 +14°C° 0 mm 4 m/S 769 mmHg 57%
    12:00 +16°C° 0 mm 3 m/S 769 mmHg 54%
    13:00 +17°C° 0 mm 3 m/S 768 mmHg 51%
    14:00 +17°C° 0 mm 3 m/S 767 mmHg 48%
    15:00 +16°C° 0 mm 3 m/S 767 mmHg 52%
    16:00 +14°C° 0 mm 3 m/S 767 mmHg 57%
    17:00 +13°C° 0 mm 3 m/S 768 mmHg 61%
    18:00 +12°C° 0 mm 3 m/S 768 mmHg 66%
    19:00 +11°C° 0 mm 3 m/S 768 mmHg 70%
    20:00 +10°C° 0 mm 3 m/S 769 mmHg 74%
    21:00 +9°C° 0 mm 3 m/S 769 mmHg 76%
    22:00 +9°C° 0 mm 3 m/S 769 mmHg 77%
    23:00 +9°C° 0 mm 3 m/S 769 mmHg 79%

    26 Juni, Montag

    Zeit Temperatur Niederschläge Wind Luftdruck Luftfeuchtigkeit
    00:00 +8°C° 0 mm 2 m/S 769 mmHg 80%
    01:00 +8°C° 0 mm 2 m/S 769 mmHg 81%
    02:00 +8°C° 0 mm 2 m/S 769 mmHg 82%
    03:00 +8°C° 0 mm 2 m/S 769 mmHg 83%
    04:00 +7°C° 0 mm 2 m/S 769 mmHg 84%
    05:00 +7°C° 0 mm 2 m/S 769 mmHg 85%
    06:00 +7°C° 0 mm 2 m/S 769 mmHg 85%
    07:00 +8°C° 0 mm 2 m/S 769 mmHg 84%
    08:00 +8°C° 0 mm 2 m/S 770 mmHg 84%
    09:00 +10°C° 0 mm 2 m/S 770 mmHg 73%
    10:00 +14°C° 0 mm 2 m/S 770 mmHg 62%
    11:00 +16°C° 0 mm 1 m/S 770 mmHg 52%
    12:00 +18°C° 0 mm 1 m/S 769 mmHg 50%
    13:00 +18°C° 0 mm 2 m/S 769 mmHg 48%
    14:00 +18°C° 0 mm 2 m/S 768 mmHg 46%
    15:00 +17°C° 0 mm 2 m/S 768 mmHg 52%
    16:00 +16°C° 0 mm 2 m/S 768 mmHg 58%
    17:00 +15°C° 0 mm 2 m/S 768 mmHg 64%
    18:00 +13°C° 0 mm 2 m/S 769 mmHg 70%
    19:00 +12°C° 0 mm 2 m/S 769 mmHg 75%
    20:00 +10°C° 0 mm 2 m/S 770 mmHg 81%
    21:00 +10°C° 0 mm 2 m/S 770 mmHg 83%
    22:00 +9°C° 0 mm 2 m/S 770 mmHg 84%
    23:00 +9°C° 0 mm 2 m/S 770 mmHg 86%

    27 Juni, Dienstag

    Zeit Temperatur Niederschläge Wind Luftdruck Luftfeuchtigkeit
    00:00 +9°C° 0 mm 2 m/S 770 mmHg 88%
    01:00 +8°C° 0 mm 3 m/S 770 mmHg 89%
    02:00 +8°C° 0 mm 3 m/S 770 mmHg 90%
    03:00 +8°C° 0 mm 2 m/S 770 mmHg 91%
    04:00 +7°C° 0 mm 2 m/S 770 mmHg 92%
    05:00 +7°C° 0 mm 2 m/S 770 mmHg 93%
    06:00 +7°C° 0 mm 2 m/S 771 mmHg 92%
    07:00 +8°C° 0 mm 2 m/S 771 mmHg 91%
    08:00 +8°C° 0 mm 2 m/S 772 mmHg 90%
    09:00 +10°C° 0 mm 3 m/S 772 mmHg 80%
    10:00 +13°C° 0 mm 3 m/S 772 mmHg 71%
    11:00 +16°C° 0 mm 3 m/S 771 mmHg 61%
    12:00 +17°C° 0 mm 3 m/S 771 mmHg 59%
    13:00 +18°C° 0 mm 3 m/S 770 mmHg 57%
    14:00 +18°C° 0 mm 3 m/S 770 mmHg 55%
    15:00 +17°C° 0 mm 3 m/S 770 mmHg 59%
    16:00 +16°C° 0 mm 2 m/S 770 mmHg 63%
    17:00 +16°C° 0 mm 2 m/S 771 mmHg 67%
    18:00 +13°C° 0 mm 3 m/S 771 mmHg 70%
    19:00 +12°C° 0 mm 3 m/S 772 mmHg 74%
    20:00 +11°C° 0 mm 3 m/S 772 mmHg 78%
    21:00 +11°C° 0 mm 3 m/S 772 mmHg 79%
    22:00 +11°C° 0 mm 4 m/S 773 mmHg 81%
    23:00 +10°C° 0 mm 4 m/S 773 mmHg 83%

    28 Juni, Mittwoch

    Zeit Temperatur Niederschläge Wind Luftdruck Luftfeuchtigkeit
    00:00 +10°C° 0 mm 4 m/S 773 mmHg 84%
    01:00 +10°C° 0 mm 4 m/S 773 mmHg 85%
    02:00 +10°C° 0 mm 4 m/S 773 mmHg 87%
    03:00 +8°C° 0 mm 4 m/S 773 mmHg 87%
    04:00 +8°C° 0 mm 4 m/S 773 mmHg 88%
    05:00 +8°C° 0 mm 4 m/S 773 mmHg 88%
    06:00 +8°C° 0 mm 4 m/S 773 mmHg 88%
    07:00 +8°C° 0 mm 4 m/S 773 mmHg 88%
    08:00 +8°C° 0 mm 4 m/S 773 mmHg 89%
    09:00 +11°C° 0 mm 4 m/S 773 mmHg 79%
    10:00 +13°C° 0 mm 4 m/S 773 mmHg 70%
    11:00 +15°C° 0 mm 4 m/S 773 mmHg 60%
    12:00 +15°C° 0 mm 4 m/S 773 mmHg 56%
    13:00 +17°C° 0 mm 3 m/S 772 mmHg 52%
    14:00 +18°C° 0 mm 3 m/S 771 mmHg 47%
    15:00 +17°C° 0 mm 3 m/S 771 mmHg 51%
    16:00 +16°C° 0 mm 2 m/S 771 mmHg 55%
    17:00 +15°C° 0 mm 2 m/S 771 mmHg 59%
    18:00 +13°C° 0 mm 3 m/S 772 mmHg 62%
    19:00 +11°C° 0 mm 3 m/S 772 mmHg 64%
    20:00 +10°C° 0 mm 3 m/S 772 mmHg 67%
    21:00 +10°C° 0 mm 4 m/S 772 mmHg 66%
    22:00 +10°C° 0 mm 4 m/S 772 mmHg 65%
    23:00 +10°C° 0 mm 4 m/S 772 mmHg 65%
    Mehr zeigen